Tracking 31027 objects as of 19-Jul-2025
HD Live streaming from Space Station
objects crossing your sky now

STARLINK-3646

Track STARLINK-3646 now!
10-day predictions
STARLINK-3646 is classified as:


NORAD ID: 51785
Int'l Code: 2022-017T
Perigee: 546.1 km
Apogee: 547.7 km
Inclination: 53.2 °
Period: 95.4 minutes
Semi major axis: 6917 km
RCS: Unknown
Launch date: February 25, 2022
Source: United States (US)
Launch site: AIR FORCE WESTERN TEST RANGE (AFWTR)
Your satellite tracking list
DMSP 5D-2 F13 DEB
Track 1 satellite(s)




NASA's NSSDC Master Catalog

Two Line Element Set (TLE):
1 51785U 22017T   25199.68027149  .00000672  00000-0  60278-4 0  9993
2 51785  53.2184 309.6034 0001137  95.1885 264.9236 15.08834453187092
Source of the keplerian elements: AFSPC